Wind_Speed
49 47 46 47 47 47 47 47 49 47 42 41 41 40 38 37 36 36 36 34 34 34 34 33 32 30 27 26 24 23 22 22 19 15 12 14 13 11 13 12 10 11 10 9 8 7 7 8 10 12 14 17 21 24 24 24 23 21 19 19 18 17 17 16 16 16 15 14 13 12 12 12 12 13 13 13 13 13 14 14 15 16 17 17 17 17
50 49 50 51 50 50 49 49 49 48 44 43 43 42 41 39 38 38 37 36 35 36 36 35 33 31 28 27 26 24 23 23 21 17 13 14 14 12 13 13 11 11 11 9 8 8 9 9 10 12 14 17 20 22 23 23 22 21 20 19 19 18 17 17 17 16 15 14 13 12 11 11 11 11 11 11 11 11 12 12 13 14 15 16 16 16
51 52 55 54 53 52 51 50 50 49 46 45 44 44 43 41 40 40 40 39 37 38 39 36 34 34 33 30 27 26 25 24 22 20 16 14 15 14 13 13 12 12 12 10 10 10 11 11 10 12 15 18 20 21 22 22 23 22 21 21 19 18 18 17 17 16 15 14 13 12 11 10 10 9 9 9 9 9 9 10 11 11 12 13 14 15
54 57 58 55 54 52 51 51 50 50 48 46 46 46 45 44 44 43 42 42 41 41 41 40 37 37 37 33 30 28 27 25 23 22 19 15 15 15 15 15 13 12 12 12 11 13 14 12 12 13 15 19 21 22 23 23 23 23 22 21 20 19 18 17 17 16 16 15 13 13 12 11 9 8 8 7 7 7 7 8 8 9 10 11 11 12
58 60 58 55 54 52 52 51 50 50 48 47 48 47 47 48 47 46 45 45 45 43 42 42 39 37 37 36 33 32 28 25 25 24 21 17 16 16 16 16 15 13 13 13 13 14 14 13 13 15 17 20 20 22 23 22 22 23 21 21 20 19 18 18 17 17 16 15 14 13 12 11 10 9 8 7 6 6 5 6 6 7 8 9 9 10
60 61 57 55 55 53 53 52 52 51 50 50 49 49 51 51 50 48 48 47 47 45 42 43 41 38 39 39 37 35 31 28 27 26 24 20 18 17 17 17 17 16 15 15 14 15 15 15 15 16 19 20 20 22 24 23 22 22 21 21 21 20 19 18 18 17 16 16 15 13 13 11 10 9 8 7 6 5 5 4 5 6 6 7 8 8
62 61 59 58 57 55 54 54 54 53 53 52 51 53 54 53 51 50 49 48 48 46 45 44 41 40 42 41 39 38 35 33 31 28 27 23 20 19 19 18 18 19 18 17 17 16 16 17 16 17 19 21 21 23 25 25 24 24 23 22 21 20 20 19 18 18 17 16 15 14 13 12 11 10 8 7 6 5 4 4 5 5 6 6 7 7
63 64 62 60 59 58 56 56 56 56 55 54 55 56 56 54 52 51 50 49 49 50 49 46 43 42 43 41 42 42 40 38 35 32 30 26 23 21 20 19 19 20 19 19 18 17 17 18 18 18 20 22 22 24 26 27 26 27 25 23 22 21 20 20 19 19 18 16 15 14 13 12 11 9 8 7 6 5 5 5 6 6 6 6 6 6
67 67 65 63 62 60 59 59 60 58 57 57 59 58 56 54 53 53 52 51 52 52 50 48 46 45 45 44 45 45 43 41 39 37 33 28 26 23 22 21 20 20 20 20 18 18 18 18 19 19 21 23 24 25 27 28 27 28 28 25 23 22 21 21 21 20 19 18 17 15 13 12 11 9 8 7 6 6 6 6 6 6 6 5 5 4
69 68 66 65 63 62 61 62 61 59 59 59 59 56 55 55 54 54 53 52 53 51 49 50 50 48 48 47 47 47 46 44 42 41 35 30 28 25 24 24 22 21 21 20 19 18 18 19 21 22 23 25 27 27 28 28 28 29 30 28 26 25 23 22 22 21 20 19 18 16 14 12 11 9 8 8 7 6 5 5 5 5 5 4 4 3
70 69 67 64 62 62 62 62 60 58 58 58 56 54 55 55 54 53 52 53 53 48 47 50 51 50 49 48 49 49 48 47 46 43 37 33 31 28 26 26 24 22 22 21 19 19 20 21 23 26 27 29 29 29 30 31 31 31 32 31 29 27 25 24 23 23 21 19 18 16 14 12 11 9 8 8 7 6 5 4 4 4 4 3 3 3
71 68 64 62 62 62 62 60 58 57 57 56 54 53 54 53 53 53 53 52 48 46 48 51 54 53 48 50 54 52 50 50 49 45 40 36 33 31 28 27 25 22 22 21 21 21 22 24 27 29 29 29 30 30 30 32 33 32 32 32 30 29 27 26 25 24 22 20 18 16 14 12 11 10 9 8 7 6 5 4 3 3 2 2 2 2
71 67 64 64 64 63 61 59 58 56 56 55 53 53 53 52 53 52 51 49 47 49 52 54 57 52 47 54 59 55 53 54 51 47 43 39 35 33 31 29 27 24 23 23 22 22 23 26 29 30 29 28 28 30 31 32 32 32 33 33 32 31 29 28 26 25 22 20 18 16 14 13 12 11 10 9 8 7 5 5 4 3 2 2 2 2
72 70 67 65 63 63 60 58 56 55 56 56 54 53 52 52 51 50 49 48 48 51 52 54 54 49 48 56 58 54 54 55 53 49 46 41 37 35 34 32 29 25 24 25 24 23 24 25 28 30 30 28 28 31 33 33 33 33 33 33 33 32 30 29 27 25 23 21 19 18 16 15 14 12 11 10 9 8 7 7 6 5 4 3 3 4
74 72 66 63 63 62 60 57 57 57 57 56 54 53 52 50 50 49 48 49 49 51 51 51 49 46 49 54 53 51 51 52 53 50 47 43 39 37 36 33 30 27 26 25 25 25 24 25 27 29 30 30 30 33 35 35 35 35 34 34 34 33 31 30 28 26 24 22 21 20 18 17 15 14 13 12 11 10 9 9 8 7 6 6 6 6
74 70 66 67 67 65 63 61 61 60 58 56 55 52 49 49 50 48 47 48 49 49 49 47 45 47 50 50 49 49 47 48 51 51 48 45 41 38 36 35 33 30 27 27 27 27 26 25 26 29 32 32 32 34 37 38 37 37 36 36 35 34 33 31 30 28 26 24 23 22 20 18 17 16 15 13 13 12 12 11 10 9 9 9 9 9
74 70 70 72 70 67 66 65 64 62 60 58 55 50 49 52 51 46 44 46 46 46 45 44 45 48 50 48 47 48 47 45 48 51 50 46 42 39 37 37 35 31 29 29 29 29 28 25 25 28 32 33 33 35 39 40 39 38 38 37 36 36 35 34 33 30 28 27 26 24 22 21 20 19 17 16 16 16 14 13 12 12 12 12 12 12
75 73 74 74 70 67 68 68 67 64 62 59 54 51 53 54 48 42 42 43 43 44 44 43 46 49 49 47 47 49 48 46 46 50 50 46 43 40 38 38 36 32 31 31 30 29 29 27 26 28 32 34 34 35 39 41 40 39 39 38 37 38 37 37 34 32 30 29 28 27 25 24 22 20 20 19 19 18 17 16 15 16 15 15 15 14
78 77 77 75 72 70 70 71 68 63 60 56 53 54 54 49 43 39 39 41 41 43 43 44 47 48 46 47 49 50 49 46 45 48 48 45 43 40 38 38 37 35 34 33 31 29 30 30 29 29 32 33 33 33 37 41 41 40 40 39 39 39 38 37 35 33 32 31 30 30 28 26 24 22 22 21 21 21 20 19 19 18 18 18 18 18
80 79 79 75 73 73 73 72 65 58 57 54 52 53 50 44 42 40 39 39 41 42 43 45 47 47 47 48 49 49 47 44 45 48 48 46 44 42 39 39 40 38 36 34 32 30 31 32 30 30 30 31 31 32 36 39 41 41 42 41 41 40 38 37 36 35 33 32 32 31 29 27 25 24 23 23 23 23 23 23 22 21 20 21 21 20
81 80 79 77 77 76 71 65 60 56 56 54 52 51 48 44 44 42 38 37 39 40 43 46 46 46 46 45 44 44 44 42 43 47 49 48 47 45 44 43 44 42 39 37 35 33 32 31 29 28 28 29 29 31 35 39 41 42 43 42 42 40 38 37 36 35 34 33 32 31 29 28 26 25 25 25 25 25 25 25 24 23 24 24 23 22
82 80 79 78 77 72 63 60 60 60 58 56 55 53 51 49 48 45 39 37 38 40 42 45 46 44 40 39 41 43 43 43 43 45 48 50 50 49 48 47 46 44 41 39 37 35 33 29 27 26 26 27 29 31 35 38 40 43 43 43 41 39 37 36 34 34 33 32 32 30 29 28 27 27 27 27 26 26 25 25 25 25 26 26 25 24
84 83 80 79 76 69 63 64 65 64 62 61 59 56 54 53 51 47 42 40 40 41 43 46 48 43 35 35 42 44 43 41 42 43 46 50 53 52 51 50 48 46 44 41 38 36 34 31 28 25 25 27 29 31 33 36 38 41 43 42 41 39 37 34 33 32 32 31 31 30 29 28 28 28 28 27 27 26 26 26 27 28 28 28 27 26
93 89 84 81 77 71 69 70 69 68 66 62 59 57 54 53 51 48 46 45 43 44 45 47 49 44 35 34 40 42 40 39 40 43 46 50 54 54 54 53 50 49 47 43 39 37 35 33 29 27 27 28 29 30 32 34 36 40 43 43 42 40 37 34 32 32 31 30 29 27 27 27 27 27 27 27 27 27 27 28 29 30 30 30 29 28
94 90 83 81 79 76 74 73 71 69 64 60 58 57 53 52 52 51 49 47 45 47 48 49 50 45 38 38 38 37 38 39 41 43 46 50 55 56 56 55 53 51 48 44 41 39 38 36 32 30 29 29 30 30 32 34 36 39 43 44 43 41 37 34 33 32 31 29 27 27 26 27 27 27 27 27 27 27 28 29 31 32 32 31 31 30
92 88 84 83 82 79 74 71 70 67 63 60 58 57 55 54 54 53 51 48 47 49 49 49 51 45 40 40 37 33 34 36 39 43 46 49 54 57 56 54 53 51 48 46 45 43 41 40 35 32 30 30 31 32 33 35 37 40 43 45 45 42 38 36 35 33 32 30 29 29 28 28 29 29 28 28 28 28 28 30 31 31 32 32 32 31
91 88 85 83 82 80 76 73 72 72 69 65 60 59 58 56 55 55 53 50 49 50 49 50 51 47 42 40 36 33 34 35 37 41 44 48 52 53 53 53 55 54 53 52 50 46 45 43 39 35 33 33 34 33 34 35 37 40 43 44 44 42 40 39 37 35 34 33 32 31 31 31 30 29 29 29 28 28 29 30 30 30 31 32 31 31
90 88 86 82 81 82 80 77 77 75 71 67 63 61 61 60 58 56 55 53 52 51 51 52 52 49 44 41 38 38 39 38 37 39 43 46 49 50 52 56 59 59 57 55 52 49 47 45 42 38 36 37 37 36 37 37 38 40 42 43 44 43 42 41 40 38 37 36 35 34 33 32 31 30 30 30 30 30 30 30 30 30 31 31 31 31
92 89 86 84 84 84 82 79 77 75 72 68 64 62 62 62 60 57 57 57 54 52 53 54 53 50 46 43 44 44 43 41 39 38 40 43 46 49 53 58 61 61 59 56 54 52 50 48 46 43 40 40 41 40 39 39 40 41 43 44 45 45 45 44 43 42 40 38 37 37 36 34 33 32 32 32 32 32 32 31 30 31 31 31 31 31
90 87 86 86 87 87 85 80 76 74 72 68 66 64 64 63 61 60 60 60 56 55 56 56 54 52 48 46 48 48 44 42 40 36 37 40 44 47 52 58 62 61 60 59 56 55 53 51 49 46 44 43 43 43 42 42 42 43 45 46 47 48 48 47 46 44 43 41 40 39 38 37 36 35 35 35 35 35 34 33 31 32 32 32 32 32
88 90 91 91 90 87 84 80 76 74 72 71 70 67 63 62 63 63 63 61 58 57 59 58 56 53 51 49 51 50 46 42 38 34 35 38 41 43 48 55 60 61 61 60 58 56 54 52 50 48 46 46 45 45 45 45 45 45 47 48 49 50 49 48 47 46 45 43 42 41 41 40 39 38 37 38 38 38 37 36 34 34 34 34 34 34
90 93 93 92 89 85 82 81 78 76 76 75 70 64 61 61 63 64 64 62 60 60 62 61 57 55 54 51 52 53 48 42 37 36 37 38 38 40 45 51 56 60 61 61 59 56 54 53 52 50 49 48 47 47 47 47 47 47 48 48 49 49 49 48 48 47 46 45 44 43 43 42 41 40 39 40 41 40 39 38 37 37 36 36 35 35
92 92 91 90 88 85 84 83 81 79 78 74 67 64 64 65 66 67 66 64 62 61 62 62 59 58 56 54 55 56 50 43 40 40 41 38 35 38 42 46 51 56 60 60 59 57 57 57 55 52 50 50 50 49 49 49 50 49 49 48 48 48 48 48 48 48 47 47 46 45 44 43 43 42 41 42 42 41 40 39 38 38 37 37 36 37
92 90 89 89 88 88 88 87 85 83 77 72 70 71 72 70 69 69 68 67 65 65 65 66 65 62 59 57 56 55 52 47 43 42 42 38 35 37 39 41 46 51 55 58 59 59 60 59 55 53 53 54 54 52 51 50 50 50 49 49 48 48 48 48 48 48 48 47 47 46 46 45 45 43 42 42 42 42 40 39 39 39 38 38 38 39
91 90 90 90 89 91 92 91 88 82 75 74 77 77 75 73 71 70 70 69 69 69 69 69 67 62 57 55 56 55 56 54 47 43 43 40 37 37 37 39 43 45 49 54 58 60 61 59 57 58 58 57 55 54 52 51 50 49 49 49 49 49 49 49 49 49 49 48 48 48 48 47 45 43 42 42 42 42 41 40 40 40 40 41 41 42
92 92 93 92 92 93 94 92 86 80 78 80 80 78 76 74 72 72 72 71 71 70 67 65 64 60 55 55 57 58 60 59 52 46 45 44 40 39 38 39 40 42 45 50 55 59 60 60 61 61 59 57 56 55 53 52 51 50 50 50 50 49 49 49 49 49 49 49 48 48 48 47 45 43 42 42 43 43 43 42 43 43 43 43 44 44
93 94 94 93 93 93 94 90 84 82 84 83 81 80 79 77 76 75 74 74 73 69 65 64 65 63 61 61 61 61 63 63 55 49 48 48 45 41 37 36 38 39 41 44 50 56 60 61 62 61 59 58 57 56 55 54 53 52 52 51 51 50 49 49 48 48 48 48 47 47 47 47 45 45 44 45 45 45 45 45 45 45 45 46 46 47
93 95 95 94 93 93 93 90 88 88 86 82 80 82 81 78 78 78 76 76 74 70 68 68 67 67 67 65 63 63 64 62 56 53 50 48 43 37 34 34 35 34 35 39 46 53 57 60 61 61 60 59 58 56 56 55 54 54 53 52 52 51 50 50 49 49 49 48 48 48 48 48 47 47 47 46 47 46 46 46 47 47 48 49 50 51
94 96 95 94 93 93 92 91 90 88 85 82 84 84 81 80 81 79 77 77 75 73 72 72 73 73 71 67 64 62 61 61 60 57 51 46 41 37 36 36 33 31 34 39 43 47 52 57 60 61 61 61 60 58 57 55 55 54 54 53 52 52 51 51 50 50 49 49 49 48 49 49 49 48 48 48 48 49 49 50 50 51 51 52 52 53
96 96 95 94 94 93 92 92 91 89 87 87 89 87 84 84 85 83 81 81 78 74 73 73 75 73 68 65 63 60 60 64 64 57 49 45 43 41 40 37 34 34 38 40 40 41 46 51 56 59 62 62 62 61 60 57 56 55 54 54 53 52 52 51 51 50 50 49 49 49 50 50 50 50 50 51 51 52 52 53 53 53 53 52 52 51
98 96 94 94 94 94 93 93 93 92 90 90 90 88 86 87 88 87 85 83 79 76 75 76 75 70 65 65 64 62 64 66 62 55 50 48 46 45 44 40 38 39 41 40 38 39 41 44 49 54 58 61 62 61 61 60 58 57 56 55 55 54 54 53 52 52 52 52 52 52 52 52 53 53 53 53 53 53 53 52 52 51 50 49 47 46
100 97 95 94 94 95 95 96 95 93 92 92 91 89 87 87 89 88 84 81 78 77 77 77 73 69 67 67 65 64 65 64 61 58 56 52 48 48 47 44 41 42 42 41 39 39 39 41 44 46 50 54 57 59 60 60 60 60 59 58 57 57 56 55 55 55 55 55 54 54 54 54 54 53 52 52 51 50 49 48 47 45 44 43 42 41
100 98 96 95 95 96 97 97 96 96 96 94 93 91 89 89 91 89 84 81 80 80 79 76 73 70 68 67 66 64 64 63 62 62 60 54 51 50 49 46 44 44 43 42 41 41 40 41 41 41 43 46 48 51 53 55 56 57 57 57 57 57 57 57 57 56 55 54 54 53 52 51 50 49 48 47 46 44 43 42 41 41 40 40 40 39
103 100 98 97 97 99 100 98 96 97 97 95 92 90 90 90 91 89 87 85 83 81 79 76 73 70 68 67 66 65 65 64 63 63 62 58 54 52 50 48 47 46 45 45 44 44 43 41 40 40 40 40 40 41 42 43 44 45 45 45 46 47 47 48 49 49 48 47 46 45 45 44 44 43 42 42 41 40 40 39 38 39 39 38 38 38
106 102 99 98 98 99 99 99 97 98 98 95 90 88 87 87 87 88 88 87 83 80 78 75 72 70 70 69 67 66 65 65 64 65 64 61 58 55 52 50 50 49 48 47 47 46 45 43 42 41 40 39 38 37 37 37 37 36 36 36 36 36 36 37 38 39 39 39 39 40 40 40 40 40 40 39 39 39 38 37 37 37 37 38 38 38
108 103 100 99 97 96 96 96 96 97 97 93 87 85 85 86 86 87 87 86 82 80 79 76 73 72 72 71 68 66 65 64 65 65 65 63 61 57 54 53 53 52 50 48 49 49 47 45 44 42 41 40 39 38 37 37 36 36 36 36 35 34 34 35 35 36 36 37 38 38 38 39 39 39 39 38 38 38 37 37 38 39 39 40 40 41
110 105 102 100 98 96 96 95 95 96 95 90 84 84 86 86 86 86 87 86 84 82 80 79 77 75 74 73 70 68 67 65 65 65 65 64 62 59 57 56 55 53 51 50 51 51 49 47 46 45 44 43 41 40 39 38 38 37 37 36 36 36 36 36 36 37 37 38 39 39 40 40 40 40 40 39 39 38 39 40 41 42 42 43 44 44
112 108 104 101 98 96 95 95 94 93 92 87 83 84 86 85 84 86 88 88 87 85 83 81 80 78 76 74 72 71 69 67 64 64 64 64 63 62 60 58 57 55 54 52 52 52 50 49 48 48 47 46 44 43 42 41 40 39 39 38 38 38 39 38 39 39 39 40 40 41 42 42 42 43 43 43 42 42 44 45 45 45 45 46 46 46
112 108 104 100 97 94 92 92 91 90 88 86 84 85 86 86 85 87 90 91 89 87 85 84 83 80 78 76 74 73 71 68 65 65 65 64 64 65 63 61 59 58 57 55 55 53 52 51 50 49 48 48 46 46 45 44 43 42 42 42 42 42 42 42 42 42 42 42 43 44 45 45 46 47 46 46 47 48 48 49 49 48 48 49 49 49
112 108 105 101 97 94 92 91 90 88 87 87 87 88 89 88 86 88 92 92 90 89 87 86 84 82 80 79 77 75 73 70 68 67 66 66 66 66 66 65 63 61 60 60 58 56 54 53 52 51 50 49 48 48 48 47 47 46 45 45 45 45 45 45 45 45 45 45 46 47 48 49 50 50 49 49 50 52 52 52 52 52 52 52 52 52
111 110 107 103 99 95 93 91 88 85 84 83 84 86 86 85 84 86 89 90 89 89 88 87 86 84 82 81 79 77 75 73 71 70 69 67 67 67 68 68 66 65 64 64 62 60 59 57 56 54 53 52 51 51 50 50 50 50 49 48 48 48 48 48 48 48 48 49 50 50 51 52 53 52 51 52 54 55 55 55 56 56 56 56 56 56
Wind_Direction
245 246 247 247 246 246 246 247 250 251 251 252 253 254 253 253 253 253 254 253 254 256 255 256 257 257 260 262 263 265 268 271 271 271 275 275 273 263 264 274 273 268 271 270 262 248 229 211 205 203 199 196 189 183 183 184 184 182 178 173 168 166 165 166 167 166 165 163 160 156 151 147 142 136 129 122 116 110 104 99 95 94 92 91 90 88
245 246 246 245 246 247 248 249 251 253 253 253 254 254 254 253 252 251 251 251 251 254 255 255 257 258 256 257 259 259 261 265 267 268 268 272 272 261 259 264 259 260 263 261 258 249 241 230 214 209 204 197 192 187 184 185 185 183 179 177 172 170 170 170 171 170 169 168 165 163 160 157 152 145 137 128 121 114 107 103 98 95 93 91 90 88
246 246 245 245 246 247 249 250 252 253 253 253 253 253 254 252 250 249 249 250 248 250 253 253 254 256 254 252 255 257 258 262 265 266 264 265 267 261 254 250 248 252 253 251 252 248 246 238 219 213 206 195 191 188 185 186 187 185 182 179 176 174 174 172 173 174 174 174 173 170 169 167 163 156 149 139 130 121 113 107 103 98 95 92 91 89
244 244 244 245 247 248 249 250 251 252 252 252 252 252 252 251 249 249 249 249 247 246 250 252 251 253 254 253 253 255 256 260 263 263 260 258 261 260 255 250 246 248 249 247 247 249 248 236 218 215 206 195 190 187 187 188 189 189 186 182 179 178 176 176 177 178 178 179 179 178 176 175 174 169 163 154 142 131 120 113 108 104 100 96 92 89
244 245 246 246 247 248 248 249 250 251 251 250 250 250 250 250 250 249 249 249 249 247 249 252 252 252 255 255 253 253 254 256 258 258 257 254 254 258 256 253 251 251 249 246 246 248 246 231 214 211 206 198 193 187 186 189 193 193 190 185 182 179 179 181 181 182 183 183 184 184 182 181 181 180 177 169 159 145 133 122 115 110 105 100 93 88
244 246 246 246 247 246 246 247 247 248 248 248 248 249 249 250 251 251 251 251 251 251 250 251 251 251 253 255 255 254 252 251 252 253 253 250 249 253 253 251 250 247 243 242 244 243 238 229 216 208 205 202 197 190 185 186 193 196 194 190 186 182 184 185 185 185 186 186 187 188 187 186 185 185 185 182 172 160 146 133 121 112 106 101 96 89
246 247 246 246 245 245 245 246 247 247 247 248 248 248 249 250 251 252 252 252 253 254 252 251 251 250 251 254 256 254 251 248 247 248 249 247 245 247 248 249 248 243 238 235 235 236 236 236 225 208 203 206 202 194 187 185 191 196 197 195 190 187 188 188 189 190 190 190 189 190 189 188 188 188 189 188 182 170 152 135 120 112 107 103 100 96
246 246 245 244 245 245 245 245 246 246 247 248 248 249 250 252 253 253 253 253 254 254 253 252 250 249 250 251 252 251 249 247 246 244 244 243 241 242 243 245 247 245 240 234 231 232 233 234 229 212 203 207 207 198 190 188 190 194 197 197 195 192 191 191 193 193 192 191 190 189 189 188 188 187 187 185 178 166 150 136 125 120 116 112 108 105
243 244 244 244 244 244 244 244 245 246 247 248 249 250 252 253 254 254 253 253 253 254 255 254 250 247 247 245 246 248 248 247 246 243 241 240 239 239 241 241 240 243 242 235 231 230 227 227 229 223 208 206 211 204 194 192 193 194 196 196 196 196 195 195 196 197 195 193 191 189 188 187 184 182 179 175 170 160 149 141 135 132 130 124 116 110
243 244 244 244 244 244 244 245 246 247 248 249 250 252 253 254 254 254 254 253 253 254 255 254 250 245 243 242 242 245 246 245 244 243 239 237 236 236 240 240 233 234 237 235 232 230 229 228 230 229 214 206 213 211 198 195 197 198 197 195 196 196 197 198 199 200 199 197 195 190 187 185 182 179 174 170 168 161 154 144 140 140 136 133 124 113
243 244 244 245 246 245 245 246 247 248 249 250 251 252 253 253 253 253 252 252 253 253 252 250 247 243 241 241 241 241 241 241 240 240 237 234 234 233 237 241 236 232 235 236 235 232 230 230 228 227 215 204 210 214 204 198 199 201 201 197 196 196 197 200 202 203 204 201 198 194 190 186 182 180 178 176 173 168 162 154 146 144 143 144 140 130
245 245 246 246 246 245 245 246 247 247 249 250 250 251 251 251 251 251 250 251 252 250 245 243 244 242 239 239 238 235 235 237 237 237 235 231 231 230 231 237 239 235 235 239 239 235 231 230 227 226 219 206 208 218 214 205 202 202 203 200 198 197 198 201 204 206 206 204 202 199 194 190 186 186 188 186 184 182 182 183 176 168 166 166 163 166
245 245 244 244 244 244 244 245 245 246 247 248 248 249 249 249 248 248 249 249 247 243 242 243 245 246 241 238 238 235 233 235 235 233 232 229 227 229 228 230 235 234 235 238 240 237 233 231 228 226 223 214 215 226 224 213 206 204 204 203 201 200 200 203 205 207 207 206 205 203 200 198 196 197 199 199 199 201 202 211 220 220 219 217 206 213
240 240 239 239 241 242 243 243 244 245 246 246 245 245 245 245 246 246 246 245 243 242 243 245 248 249 244 241 242 240 236 235 235 232 230 227 224 227 228 227 230 233 233 236 240 240 236 233 232 228 223 221 226 232 228 218 210 208 207 205 203 203 204 206 207 208 208 209 209 207 207 208 207 208 209 209 211 214 217 226 235 240 246 249 245 249
238 239 239 239 240 241 241 241 242 242 243 243 243 243 243 244 245 244 243 243 242 243 243 245 248 247 242 241 242 243 239 237 236 233 230 227 223 225 229 227 227 229 232 236 240 243 240 235 234 232 228 229 231 233 229 221 214 210 208 207 205 204 206 208 210 210 210 211 213 213 213 215 217 218 220 220 221 225 229 234 240 247 255 257 258 260
240 240 239 238 237 238 238 237 238 239 240 241 241 242 243 243 243 241 241 242 242 243 244 245 244 241 239 239 240 241 240 236 236 234 230 227 223 223 228 228 225 225 230 237 239 242 243 238 232 229 229 230 230 231 230 224 218 213 209 208 206 204 206 209 212 212 212 215 218 218 219 222 225 227 228 230 232 236 238 240 245 253 257 261 263 264
239 239 239 238 237 238 238 237 237 237 238 238 239 239 240 240 240 239 240 242 244 245 245 243 239 237 237 238 238 238 236 232 232 233 231 227 223 222 227 229 226 226 230 234 235 239 244 244 235 230 229 228 227 229 229 226 221 216 212 209 208 206 207 210 212 212 213 217 221 222 224 226 230 234 236 238 240 242 242 245 250 254 257 259 262 265
235 235 236 237 237 237 238 238 237 236 237 238 238 237 238 239 241 240 241 243 244 244 243 240 238 237 237 237 237 237 234 228 226 230 232 228 222 221 226 229 228 228 231 232 232 235 240 242 239 234 231 228 226 228 230 227 223 218 214 211 210 208 208 211 212 213 215 219 223 226 227 228 231 235 240 243 245 247 249 251 253 255 258 261 263 266
232 233 233 234 234 234 235 236 236 237 238 239 238 238 240 242 242 241 241 243 243 242 241 239 238 237 235 235 235 235 235 229 223 226 229 227 222 219 224 230 229 229 232 234 233 235 238 239 238 236 233 229 227 228 229 227 223 220 216 213 212 211 210 211 213 214 217 220 224 227 228 230 232 236 241 245 248 250 250 251 252 254 257 261 263 265
232 233 233 233 233 232 233 235 236 237 238 238 237 239 241 241 241 239 240 242 242 242 241 240 239 237 234 233 234 235 236 231 224 223 225 223 220 216 219 227 228 227 230 234 234 234 237 238 239 238 234 230 228 228 229 226 223 221 219 216 215 214 211 211 212 214 217 221 225 228 230 232 234 237 239 243 245 247 247 248 250 253 255 257 258 261
232 232 233 233 233 233 233 235 237 236 236 236 235 237 238 238 239 238 238 241 242 242 243 242 241 239 235 234 236 236 235 231 225 224 223 220 217 214 214 221 225 224 226 230 231 231 233 236 239 240 235 231 229 228 228 225 222 221 221 220 220 218 215 214 214 215 217 221 224 228 230 232 234 237 239 242 245 246 247 248 249 252 254 256 257 258
235 235 235 235 234 234 234 235 235 232 231 232 231 232 233 233 233 233 232 234 237 238 240 241 240 238 234 233 233 232 231 227 223 223 222 219 217 214 213 217 221 222 223 226 228 229 231 233 237 239 235 231 229 227 226 224 221 221 222 223 223 222 220 219 218 219 221 223 225 227 230 232 234 238 241 244 246 248 250 250 251 253 255 257 258 259
232 232 233 234 234 233 231 231 231 230 228 228 228 227 228 230 230 229 227 226 229 232 234 237 238 234 230 230 230 228 228 225 221 220 220 219 217 215 213 214 218 220 221 223 226 228 230 231 233 236 234 230 228 226 225 223 221 220 222 225 226 225 224 223 222 223 225 227 229 230 232 235 237 240 243 245 247 249 251 253 253 255 256 258 260 261
228 228 227 230 232 230 228 228 229 229 227 227 228 227 227 229 231 229 226 222 223 227 229 235 238 232 225 228 230 227 226 224 220 218 218 219 218 215 214 213 215 218 219 219 222 226 228 228 228 231 231 228 227 224 222 221 220 220 221 223 226 226 226 225 225 225 227 229 231 233 235 237 240 243 245 248 250 252 254 255 255 256 258 260 261 262
231 230 228 228 230 229 228 228 230 231 229 228 228 229 228 228 230 231 227 223 223 226 229 234 239 233 225 228 230 227 225 223 219 217 217 218 219 216 214 213 214 216 217 217 219 223 225 225 224 227 227 226 225 221 218 218 217 218 219 221 224 226 227 227 226 227 228 229 230 232 234 237 240 244 247 250 253 255 256 257 257 258 259 261 263 264
232 232 230 229 230 231 229 229 232 233 232 230 229 229 229 228 229 230 229 224 222 227 230 235 239 236 229 230 229 226 225 223 220 219 217 218 219 218 216 214 215 216 216 216 217 219 221 222 220 222 224 224 223 219 216 216 216 216 217 219 222 225 226 227 228 228 228 228 229 231 234 237 241 245 249 252 255 257 259 259 260 260 261 261 263 264
230 230 230 229 231 232 229 226 227 228 228 227 225 226 227 227 226 228 229 225 221 223 228 233 238 237 233 233 229 223 225 224 221 220 219 218 220 219 217 215 215 216 216 216 215 215 218 220 217 217 219 220 220 217 215 215 215 216 217 219 221 224 226 228 228 229 229 229 231 234 236 240 244 248 251 254 257 259 260 261 261 262 262 262 264 266
228 228 227 227 228 231 230 226 226 227 227 226 224 222 223 225 224 224 227 226 221 220 224 230 236 236 234 235 230 223 224 224 221 221 220 218 219 219 216 215 216 216 216 216 214 214 216 218 217 214 215 217 217 215 214 213 214 215 215 217 220 224 227 228 229 230 230 231 233 236 239 243 247 250 253 256 257 259 260 261 262 263 264 264 266 268
225 226 225 224 224 227 229 227 227 228 229 228 226 224 223 224 224 222 223 224 220 218 223 227 233 235 233 234 233 225 222 223 220 220 220 218 219 219 216 215 216 217 217 216 214 215 216 218 218 215 216 217 216 214 213 212 213 214 214 215 218 221 225 227 228 230 231 233 235 238 242 245 248 251 254 256 257 259 260 261 262 263 264 265 267 268
223 224 224 224 224 224 225 225 225 227 229 228 227 225 222 223 223 221 221 222 220 217 221 225 229 232 231 233 235 228 222 223 221 220 222 220 219 220 219 218 218 217 217 217 215 215 216 218 219 218 219 221 219 217 215 214 213 213 214 214 216 219 222 225 227 230 232 234 236 239 242 245 247 249 252 255 257 258 259 259 260 262 263 263 264 266
221 222 222 223 224 224 225 224 223 223 226 226 226 224 221 220 222 222 221 221 219 217 220 224 226 229 229 230 235 232 224 222 221 222 227 225 221 221 221 220 219 218 218 218 217 217 217 219 220 221 221 222 222 221 220 218 217 216 216 216 217 219 222 224 227 230 232 235 237 239 242 244 246 248 251 254 256 257 257 258 258 259 261 261 263 265
219 220 221 222 223 223 224 225 223 221 223 224 225 224 222 219 219 222 222 221 219 218 220 223 224 227 227 227 233 235 226 219 223 227 229 226 222 223 224 222 221 219 219 219 219 219 219 221 222 222 222 223 224 223 223 223 222 221 220 220 220 222 224 226 229 231 233 236 238 239 242 244 246 248 250 254 256 257 258 258 259 260 262 264 266 268
218 219 221 222 222 222 223 223 223 221 221 223 223 222 222 218 216 220 222 220 218 218 221 223 224 226 227 225 230 235 228 219 222 229 229 226 223 225 225 224 223 221 220 219 219 219 220 221 222 222 223 224 225 225 225 226 226 225 225 225 225 226 227 229 231 233 235 238 240 241 243 245 247 249 251 253 256 258 259 259 260 261 263 265 267 268
218 218 220 221 221 221 222 222 222 221 220 220 219 219 219 217 214 217 220 220 217 217 219 222 222 223 225 226 229 235 234 227 225 229 231 227 225 227 227 226 226 223 221 220 220 220 221 222 222 224 225 225 225 225 225 227 228 229 229 229 229 229 229 231 233 235 237 239 242 244 246 248 250 251 252 254 256 258 260 260 261 263 265 266 268 269
216 217 218 219 220 220 221 221 221 220 218 218 218 218 218 218 215 215 218 219 218 217 217 220 222 223 226 229 230 233 237 235 228 227 231 230 227 227 227 227 227 225 222 221 220 221 222 222 222 224 225 226 227 227 227 228 230 231 232 232 232 232 232 233 235 237 240 241 244 246 248 250 252 252 253 254 256 258 260 262 264 266 268 269 270 271
215 216 216 216 217 219 221 222 222 220 218 217 217 218 219 218 216 215 217 219 219 218 218 220 223 223 224 228 228 229 233 235 230 226 229 231 227 225 226 226 227 225 222 220 220 222 223 223 223 225 226 227 229 230 230 231 232 233 234 234 235 235 235 236 237 239 241 243 245 248 250 251 253 254 255 256 258 260 262 264 266 268 270 271 273 274
214 215 216 215 216 218 220 222 221 220 219 217 216 217 218 218 217 215 215 217 218 218 217 219 222 222 221 223 225 225 229 233 231 226 228 230 228 226 226 229 230 229 226 223 222 223 224 224 225 227 227 228 229 230 231 231 232 234 235 236 237 238 238 239 240 241 243 245 247 249 251 254 256 257 258 259 261 263 265 267 269 270 272 273 274 276
214 215 215 215 215 216 218 220 220 219 219 218 217 217 217 217 218 217 215 216 217 216 216 218 220 221 222 223 224 226 229 232 232 230 229 230 231 230 229 232 233 232 230 228 226 225 224 225 226 227 228 229 230 230 231 231 232 234 236 237 239 240 241 242 243 244 246 248 249 251 254 256 257 259 260 261 263 265 267 269 270 272 273 274 275 277
215 215 215 215 215 216 216 218 219 219 218 217 217 217 216 216 218 218 216 217 216 214 215 217 218 219 220 221 223 226 230 233 234 232 230 230 232 231 228 229 231 230 230 230 228 227 226 225 226 227 229 230 231 231 231 232 233 234 236 238 239 241 243 244 246 247 249 250 252 253 255 257 259 260 262 264 265 267 269 270 271 272 273 275 276 276
214 215 215 214 215 215 216 216 218 218 217 216 217 215 213 214 217 216 216 216 215 213 215 219 220 219 219 222 224 225 227 231 233 232 230 229 231 233 230 228 227 227 229 230 229 229 228 228 227 228 229 230 232 233 233 234 235 236 237 238 240 241 243 245 247 249 250 252 253 255 256 258 260 262 264 266 267 269 270 271 272 273 273 274 274 275
212 214 214 214 214 215 215 215 216 217 217 216 216 215 212 212 215 216 215 215 213 212 214 218 220 219 219 222 224 224 226 230 233 233 231 228 228 231 232 228 223 224 228 230 230 230 230 230 230 230 231 231 233 234 235 236 237 237 238 239 240 242 244 246 248 250 251 253 254 256 258 259 261 263 265 266 267 268 269 270 271 271 272 272 272 273
211 212 212 213 214 214 215 215 215 216 216 215 215 215 212 212 214 216 216 215 213 212 214 217 218 218 218 221 223 223 226 230 232 233 232 228 226 228 230 228 223 222 226 229 230 231 231 231 231 232 233 234 234 235 236 237 238 239 240 241 242 244 245 247 248 250 251 253 255 257 259 260 262 263 264 265 266 266 267 268 268 269 270 271 272 273
211 211 211 212 213 214 215 215 214 215 216 215 214 213 211 210 212 214 215 215 214 213 214 215 217 217 218 221 223 224 226 228 230 232 233 230 227 227 228 228 225 223 224 227 229 230 231 232 232 232 233 234 235 236 238 239 240 241 242 244 245 247 248 249 250 251 253 254 256 257 259 259 260 261 261 262 262 263 263 265 266 268 269 271 272 273
211 211 211 211 211 213 215 215 215 215 216 215 213 212 211 210 210 212 213 214 213 213 214 215 215 216 218 221 223 223 225 227 228 231 232 231 229 227 227 227 226 224 224 225 228 229 230 231 232 231 232 233 233 234 236 237 239 240 241 243 245 246 247 248 249 250 251 253 254 255 256 257 257 257 258 259 260 261 262 263 265 267 268 270 272 273
212 211 211 211 212 213 214 214 214 216 217 215 212 211 211 210 210 211 213 214 213 213 214 214 215 216 218 220 223 223 224 225 227 229 231 231 229 227 226 225 225 225 224 225 227 228 228 229 231 231 231 232 232 232 233 234 234 235 236 238 239 241 243 245 246 247 249 250 251 252 253 254 255 256 257 258 259 261 262 264 265 267 269 271 274 275
212 211 211 211 213 214 215 215 215 216 217 215 212 211 211 211 209 210 213 215 214 213 213 214 214 216 217 220 222 223 224 225 226 228 230 230 230 228 225 224 225 224 224 225 227 227 227 227 230 231 231 232 232 231 231 232 233 233 235 236 237 237 239 242 244 246 247 248 249 250 251 252 253 254 256 257 259 261 263 265 267 269 271 273 275 277
212 212 211 211 212 213 214 215 215 216 217 216 211 211 212 211 209 209 211 214 214 213 213 213 214 215 217 218 221 222 223 224 226 227 228 229 230 228 225 224 224 224 224 225 226 226 226 226 228 231 233 233 233 232 231 231 232 233 234 236 237 238 239 241 243 246 247 247 248 248 249 251 253 256 258 260 261 264 266 267 268 270 272 274 276 277
211 212 212 212 212 213 214 215 215 215 216 215 212 211 212 211 208 207 210 212 213 213 213 213 214 215 216 218 220 221 222 223 224 226 227 228 229 229 226 224 223 223 222 223 225 226 226 226 228 229 232 233 234 234 233 231 232 234 236 237 239 240 242 243 245 247 249 249 249 250 251 253 256 259 261 264 266 267 268 269 270 272 274 275 277 278
211 212 212 213 213 214 215 216 216 215 215 215 213 212 212 211 208 207 209 211 212 212 212 213 213 214 215 217 219 221 222 222 223 225 226 226 227 228 227 226 225 223 221 221 223 225 227 227 227 228 229 231 233 235 235 235 235 236 238 240 242 243 245 246 248 249 250 251 251 252 253 255 258 260 263 266 268 269 270 271 273 274 275 276 278 280
211 212 213 213 213 214 216 217 217 215 214 214 213 211 211 209 207 207 209 210 211 211 212 212 213 214 214 216 218 220 221 222 223 224 225 226 227 227 228 228 227 225 222 221 222 223 225 227 228 228 229 230 233 235 238 239 239 239 241 243 245 246 248 250 250 251 252 252 253 254 255 257 259 261 263 266 268 269 271 272 274 275 276 277 278 280
211 212 213 213 213 214 215 217 217 216 215 214 213 212 209 208 207 208 209 210 210 212 212 212 213 214 214 215 217 219 220 221 222 224 225 226 227 227 228 228 228 228 226 224 222 222 223 226 229 230 231 233 234 236 239 242 243 243 243 244 246 248 250 251 253 254 255 255 256 257 258 259 260 262 263 265 267 269 270 272 273 274 275 276 277 278
Height
10930 10934 10936 10934 10934 10935 10937 10939 10938 10942 10949 10951 10952 10954 10956 10958 10958 10959 10960 10962 10962 10962 10963 10963 10964 10967 10969 10970 10971 10971 10970 10971 10971 10973 10973 10971 10971 10972 10971 10970 10971 10971 10970 10971 10972 10972 10972 10973 10974 10976 10977 10978 10979 10979 10981 10984 10987 10989 10992 10993 10994 10996 10997 10999 11001 11002 11004 11005 11006 11007 11008 11008 11008 11009 11009 11010 11010 11010 11010 11010 11010 11009 11009 11009 11008 11008
10927 10929 10927 10925 10928 10931 10933 10934 10935 10939 10944 10946 10947 10949 10952 10954 10955 10955 10956 10958 10959 10958 10958 10960 10961 10963 10965 10966 10968 10969 10969 10968 10969 10970 10971 10971 10970 10970 10970 10970 10970 10970 10970 10971 10972 10972 10972 10973 10974 10975 10977 10978 10979 10980 10982 10984 10987 10990 10992 10994 10995 10996 10998 10999 11001 11003 11004 11006 11007 11008 11009 11009 11009 11010 11010 11011 11011 11011 11011 11011 11011 11011 11010 11010 11010 11009
10921 10919 10916 10920 10924 10927 10929 10931 10932 10934 10938 10941 10942 10944 10947 10949 10950 10950 10951 10953 10955 10955 10954 10957 10958 10958 10960 10963 10965 10966 10966 10966 10967 10968 10969 10970 10970 10969 10969 10968 10968 10969 10969 10969 10970 10971 10972 10973 10973 10975 10976 10977 10979 10980 10982 10985 10987 10990 10992 10993 10995 10996 10998 11000 11002 11003 11005 11006 11007 11008 11009 11010 11010 11011 11011 11011 11012 11012 11012 11012 11012 11012 11012 11012 11011 11011
10911 10907 10909 10917 10920 10923 10925 10926 10927 10929 10933 10936 10937 10939 10941 10942 10944 10945 10946 10948 10950 10951 10951 10953 10956 10955 10956 10959 10962 10963 10963 10964 10965 10965 10967 10969 10969 10969 10967 10967 10967 10968 10967 10968 10968 10970 10972 10972 10972 10974 10976 10977 10978 10980 10982 10984 10987 10989 10991 10993 10995 10997 10999 11000 11002 11003 11005 11006 11007 11008 11009 11010 11011 11011 11012 11012 11012 11013 11013 11013 11013 11013 11013 11013 11012 11012
10901 10899 10907 10914 10915 10918 10920 10921 10923 10924 10927 10930 10931 10933 10934 10934 10938 10940 10941 10942 10944 10947 10950 10950 10953 10954 10953 10955 10958 10959 10961 10962 10962 10962 10964 10966 10968 10967 10966 10966 10966 10967 10967 10967 10968 10970 10972 10971 10971 10973 10976 10977 10978 10978 10980 10984 10987 10990 10992 10993 10995 10997 10999 11000 11002 11003 11004 11006 11007 11008 11009 11010 11011 11011 11012 11012 11013 11013 11013 11014 11014 11014 11014 11013 11013 11013
10893 10896 10904 10908 10909 10912 10914 10915 10917 10918 10921 10923 10926 10927 10926 10928 10933 10935 10936 10937 10938 10943 10947 10947 10950 10952 10950 10951 10953 10955 10957 10959 10959 10959 10961 10964 10966 10966 10965 10965 10965 10966 10966 10967 10967 10969 10971 10971 10970 10972 10975 10977 10978 10978 10979 10982 10986 10990 10992 10993 10995 10997 10998 11000 11001 11003 11004 11005 11006 11008 11009 11010 11011 11011 11012 11012 11013 11013 11014 11014 11014 11014 11014 11014 11014 11013
10888 10891 10898 10900 10902 10905 10908 10910 10911 10912 10915 10918 10920 10919 10919 10923 10928 10930 10931 10933 10934 10938 10941 10943 10947 10948 10947 10948 10949 10951 10953 10955 10955 10957 10958 10961 10963 10964 10964 10964 10964 10964 10965 10965 10966 10967 10969 10971 10970 10970 10973 10977 10978 10977 10978 10981 10984 10988 10991 10993 10995 10996 10998 11000 11001 11002 11004 11005 11006 11007 11009 11010 11010 11011 11012 11012 11013 11013 11014 11014 11014 11014 11014 11014 11014 11014
10881 10882 10889 10892 10895 10898 10902 10904 10904 10906 10909 10912 10912 10912 10914 10919 10923 10925 10926 10928 10930 10931 10934 10939 10943 10944 10944 10946 10945 10945 10948 10950 10951 10953 10955 10957 10960 10961 10962 10962 10962 10962 10962 10963 10965 10966 10967 10969 10970 10970 10971 10975 10977 10977 10977 10979 10982 10985 10989 10992 10994 10996 10998 10999 11001 11002 11003 11005 11006 11007 11008 11009 11010 11011 11012 11012 11013 11013 11013 11013 11014 11014 11014 11014 11014 11014
10869 10873 10881 10884 10887 10892 10895 10895 10896 10900 10904 10904 10904 10907 10911 10914 10917 10919 10920 10923 10924 10925 10929 10933 10937 10939 10940 10940 10940 10941 10943 10946 10947 10948 10951 10954 10957 10958 10959 10960 10960 10960 10960 10961 10962 10963 10964 10967 10969 10969 10970 10973 10975 10975 10976 10977 10980 10983 10987 10990 10993 10995 10997 10998 11000 11001 11003 11004 11005 11006 11007 11009 11010 11010 11011 11012 11012 11013 11013 11013 11013 11013 11014 11014 11014 11014
10861 10868 10873 10877 10881 10886 10887 10887 10891 10896 10898 10897 10899 10904 10907 10908 10911 10912 10915 10917 10917 10922 10926 10924 10928 10932 10933 10933 10936 10938 10939 10941 10942 10943 10948 10951 10953 10956 10956 10956 10958 10959 10959 10959 10960 10961 10962 10965 10967 10968 10968 10970 10972 10974 10975 10976 10979 10981 10984 10987 10990 10993 10996 10998 10999 11001 11002 11003 11004 11006 11007 11008 11009 11010 11011 11011 11012 11012 11012 11013 11013 11013 11013 11013 11013 11014
10855 10860 10865 10872 10877 10879 10879 10882 10887 10891 10891 10891 10895 10900 10900 10902 10904 10906 10909 10909 10912 10921 10920 10914 10917 10923 10926 10929 10931 10933 10934 10934 10935 10938 10944 10947 10949 10953 10953 10952 10954 10956 10956 10957 10958 10959 10961 10963 10965 10966 10966 10967 10969 10971 10972 10974 10976 10979 10982 10985 10988 10991 10994 10996 10998 11000 11001 11002 11004 11005 11006 11007 11008 11009 11010 11011 11011 11012 11012 11012 11013 11013 11013 11013 11013 11013
10846 10853 10862 10867 10869 10870 10872 10877 10881 10884 10884 10886 10891 10893 10893 10896 10898 10900 10902 10904 10911 10915 10908 10904 10906 10914 10923 10923 10921 10925 10927 10927 10930 10935 10939 10943 10945 10949 10951 10951 10951 10952 10953 10955 10956 10957 10959 10961 10963 10964 10964 10964 10967 10970 10971 10972 10974 10977 10980 10983 10986 10989 10992 10994 10996 10998 11000 11002 11003 11004 11006 11007 11008 11009 11009 11010 11011 11011 11012 11012 11012 11012 11013 11013 11013 11013
10838 10847 10854 10856 10858 10861 10865 10871 10874 10877 10878 10880 10884 10885 10887 10889 10891 10894 10897 10901 10905 10902 10897 10898 10900 10910 10920 10913 10910 10919 10921 10921 10926 10931 10934 10939 10942 10945 10948 10949 10949 10950 10951 10953 10955 10955 10956 10958 10961 10963 10964 10964 10966 10969 10970 10971 10973 10976 10979 10982 10985 10987 10990 10992 10994 10997 10999 11001 11002 11003 11005 11006 11007 11007 11008 11009 11010 11010 11011 11011 11012 11012 11012 11013 11013 11013
10828 10833 10840 10846 10851 10854 10859 10865 10869 10871 10871 10872 10876 10878 10880 10883 10885 10889 10892 10894 10896 10893 10893 10895 10898 10909 10912 10904 10906 10915 10917 10918 10922 10926 10930 10935 10939 10942 10944 10946 10948 10949 10949 10950 10952 10953 10954 10956 10958 10961 10963 10963 10966 10968 10969 10970 10972 10975 10978 10981 10983 10986 10988 10991 10993 10995 10997 10999 11001 11002 11003 11004 11005 11006 11007 11008 11009 11009 11010 11011 11011 11012 11012 11013 11013 11013
10819 10824 10837 10844 10845 10848 10853 10859 10860 10861 10861 10864 10868 10870 10874 10878 10880 10883 10886 10887 10888 10887 10889 10893 10898 10904 10900 10897 10904 10911 10914 10917 10920 10923 10928 10931 10936 10938 10941 10944 10947 10948 10948 10947 10949 10950 10951 10953 10955 10958 10960 10962 10964 10966 10967 10968 10970 10972 10975 10978 10982 10985 10987 10989 10992 10994 10996 10997 10999 11000 11001 11002 11003 11004 11005 11006 11007 11008 11009 11009 11010 11011 11011 11012 11012 11012
10813 10823 10833 10832 10833 10838 10843 10848 10849 10850 10854 10858 10861 10866 10872 10873 10872 10877 10881 10882 10882 10884 10887 10891 10896 10894 10889 10893 10901 10906 10911 10915 10916 10919 10924 10928 10932 10936 10938 10940 10943 10946 10946 10946 10946 10947 10947 10949 10951 10953 10956 10959 10961 10963 10964 10965 10967 10969 10973 10976 10979 10982 10985 10987 10989 10992 10994 10995 10996 10998 10999 11000 11001 11002 11003 11004 11005 11006 11007 11008 11009 11009 11010 11010 11010 11011
10806 10816 10819 10817 10824 10832 10834 10837 10840 10844 10848 10851 10856 10864 10866 10863 10866 10874 10877 10877 10879 10881 10884 10887 10888 10883 10882 10891 10898 10900 10905 10910 10912 10915 10919 10925 10930 10933 10935 10936 10939 10943 10944 10944 10944 10945 10946 10947 10949 10950 10953 10955 10957 10959 10961 10962 10965 10968 10971 10974 10977 10980 10982 10984 10986 10989 10991 10993 10994 10995 10997 10998 10999 11000 11001 11002 11003 11003 11004 11006 11007 11007 11008 11008 11008 11009
10796 10803 10804 10808 10818 10824 10826 10827 10831 10837 10841 10846 10854 10858 10855 10856 10865 10872 10873 10874 10876 10876 10878 10880 10878 10876 10881 10889 10892 10894 10898 10904 10908 10910 10915 10922 10927 10931 10932 10932 10936 10939 10940 10941 10942 10944 10945 10946 10947 10948 10950 10951 10953 10955 10958 10960 10963 10966 10969 10972 10974 10977 10979 10981 10984 10986 10988 10990 10991 10992 10994 10995 10996 10997 10998 10999 11000 11001 11002 11003 11004 11004 11005 11005 11006 11006
10785 10789 10791 10799 10808 10813 10814 10815 10822 10834 10839 10845 10851 10849 10850 10857 10864 10868 10869 10870 10870 10869 10871 10872 10870 10873 10880 10884 10885 10888 10893 10899 10904 10905 10911 10918 10923 10927 10930 10929 10932 10935 10936 10938 10940 10942 10943 10943 10945 10945 10946 10948 10950 10953 10956 10959 10962 10965 10967 10970 10972 10974 10976 10979 10981 10983 10985 10986 10988 10989 10990 10992 10994 10995 10996 10997 10997 10998 10999 11000 11001 11002 11003 11003 11003 11004
10776 10779 10783 10793 10798 10800 10803 10808 10821 10834 10836 10841 10845 10844 10849 10856 10859 10862 10864 10863 10863 10864 10865 10864 10865 10870 10874 10877 10879 10885 10890 10896 10900 10902 10906 10912 10917 10922 10926 10926 10927 10930 10933 10934 10936 10938 10939 10940 10942 10943 10944 10946 10948 10951 10954 10958 10961 10963 10965 10967 10969 10972 10974 10976 10978 10979 10981 10983 10984 10986 10988 10990 10992 10993 10994 10994 10995 10995 10996 10997 10998 10999 11000 11000 11000 11001
10767 10771 10777 10784 10786 10788 10800 10813 10824 10830 10831 10834 10839 10841 10846 10850 10852 10855 10859 10859 10859 10860 10859 10859 10861 10864 10869 10875 10879 10883 10887 10892 10896 10898 10901 10906 10910 10914 10918 10919 10921 10925 10928 10930 10932 10934 10935 10938 10940 10941 10943 10944 10947 10949 10952 10955 10959 10961 10964 10965 10968 10970 10972 10973 10975 10976 10978 10980 10982 10983 10985 10987 10989 10990 10991 10991 10992 10992 10994 10995 10996 10996 10996 10997 10998 10998
10760 10767 10772 10774 10776 10788 10806 10815 10815 10817 10821 10825 10829 10833 10838 10841 10843 10848 10852 10853 10853 10853 10853 10853 10855 10859 10867 10873 10874 10877 10881 10885 10889 10893 10896 10901 10904 10907 10911 10914 10916 10920 10923 10926 10928 10930 10932 10936 10939 10940 10941 10942 10944 10946 10948 10952 10956 10959 10961 10963 10966 10969 10971 10972 10974 10975 10977 10978 10980 10981 10983 10985 10986 10987 10988 10988 10989 10990 10991 10993 10993 10993 10993 10994 10995 10996
10747 10754 10760 10762 10771 10788 10800 10801 10800 10805 10811 10815 10819 10825 10829 10832 10837 10843 10846 10846 10846 10847 10846 10846 10848 10856 10866 10867 10866 10871 10876 10880 10885 10888 10891 10894 10898 10901 10905 10908 10912 10914 10918 10921 10925 10927 10930 10933 10936 10938 10939 10940 10942 10944 10946 10950 10953 10956 10959 10962 10965 10967 10969 10971 10972 10974 10976 10977 10978 10980 10981 10982 10983 10984 10985 10986 10987 10988 10989 10990 10990 10990 10990 10991 10992 10993
10725 10734 10747 10755 10767 10781 10785 10786 10790 10794 10801 10808 10814 10820 10825 10829 10833 10837 10838 10839 10841 10841 10840 10841 10845 10855 10863 10862 10862 10869 10873 10876 10880 10883 10885 10888 10891 10895 10898 10903 10907 10909 10912 10917 10921 10924 10926 10929 10933 10935 10935 10937 10939 10942 10944 10947 10950 10953 10956 10959 10962 10964 10966 10969 10971 10972 10973 10974 10976 10978 10979 10980 10981 10981 10982 10983 10984 10986 10987 10987 10987 10987 10988 10988 10989 10990
10717 10731 10747 10754 10759 10767 10774 10778 10783 10789 10798 10808 10812 10816 10823 10826 10828 10831 10832 10835 10838 10837 10836 10838 10841 10852 10860 10858 10860 10867 10869 10871 10875 10877 10879 10882 10884 10887 10891 10897 10903 10905 10908 10913 10917 10920 10922 10925 10929 10931 10933 10935 10936 10938 10941 10943 10946 10949 10952 10955 10958 10961 10964 10966 10968 10969 10970 10972 10974 10975 10976 10977 10978 10978 10979 10980 10982 10983 10984 10984 10984 10985 10985 10986 10986 10987
10716 10729 10741 10746 10750 10758 10769 10776 10782 10788 10796 10803 10808 10813 10817 10821 10823 10825 10827 10832 10835 10834 10834 10836 10838 10847 10855 10854 10858 10864 10865 10867 10870 10871 10874 10876 10878 10882 10889 10896 10902 10904 10906 10909 10911 10915 10917 10919 10924 10927 10930 10932 10933 10935 10937 10939 10941 10944 10947 10950 10954 10957 10961 10962 10964 10965 10967 10968 10970 10971 10972 10973 10974 10975 10977 10978 10980 10981 10981 10981 10982 10982 10983 10983 10984 10984
10709 10721 10731 10740 10746 10751 10760 10769 10772 10776 10783 10792 10801 10806 10809 10813 10817 10819 10822 10828 10831 10831 10831 10831 10833 10842 10849 10850 10856 10861 10861 10862 10865 10866 10869 10871 10874 10881 10888 10893 10896 10896 10898 10901 10905 10910 10912 10914 10919 10923 10925 10926 10928 10930 10932 10934 10937 10940 10943 10947 10951 10954 10956 10958 10960 10961 10963 10965 10966 10967 10968 10970 10971 10973 10974 10976 10977 10978 10978 10978 10979 10980 10980 10980 10981 10981
10702 10710 10721 10734 10739 10740 10748 10758 10761 10765 10776 10786 10793 10798 10801 10806 10810 10814 10819 10822 10825 10827 10827 10826 10828 10836 10843 10846 10850 10854 10854 10856 10859 10861 10864 10868 10873 10878 10882 10884 10886 10888 10891 10895 10901 10906 10908 10910 10913 10917 10919 10920 10923 10925 10927 10930 10932 10935 10939 10943 10947 10950 10952 10954 10956 10957 10959 10961 10962 10964 10965 10967 10969 10970 10972 10973 10974 10974 10975 10975 10976 10977 10977 10977 10977 10978
10690 10700 10714 10723 10727 10728 10737 10748 10755 10762 10772 10779 10787 10793 10795 10798 10804 10810 10813 10814 10819 10824 10823 10822 10825 10830 10838 10841 10842 10845 10848 10851 10855 10857 10861 10866 10869 10871 10874 10875 10877 10881 10887 10892 10898 10901 10904 10906 10908 10912 10914 10915 10918 10920 10922 10925 10928 10930 10934 10938 10941 10944 10946 10949 10951 10953 10955 10957 10959 10960 10962 10964 10966 10967 10968 10969 10970 10970 10971 10972 10973 10973 10973 10974 10974 10974
10686 10700 10708 10711 10713 10716 10725 10739 10750 10757 10765 10772 10779 10784 10788 10793 10798 10803 10805 10807 10813 10818 10817 10818 10820 10825 10832 10835 10835 10839 10844 10847 10852 10857 10859 10861 10863 10866 10868 10869 10872 10878 10883 10888 10892 10895 10899 10902 10904 10908 10910 10912 10915 10917 10918 10920 10922 10925 10929 10931 10935 10937 10940 10943 10946 10948 10951 10953 10955 10957 10958 10960 10961 10963 10964 10965 10965 10966 10967 10968 10969 10969 10969 10970 10970 10971
10684 10690 10691 10695 10702 10711 10723 10735 10744 10752 10759 10762 10767 10775 10783 10790 10792 10795 10798 10802 10808 10812 10812 10813 10816 10820 10825 10829 10830 10834 10839 10844 10851 10855 10855 10856 10860 10862 10862 10863 10868 10874 10878 10883 10888 10892 10896 10900 10902 10905 10907 10909 10911 10914 10915 10917 10919 10921 10924 10926 10929 10932 10935 10939 10941 10944 10946 10948 10951 10953 10954 10955 10957 10959 10960 10960 10961 10962 10963 10964 10965 10966 10966 10966 10967 10968
10671 10672 10678 10688 10698 10710 10721 10729 10737 10745 10748 10751 10761 10774 10782 10786 10787 10789 10793 10797 10803 10806 10806 10807 10812 10815 10818 10824 10828 10828 10833 10841 10848 10849 10848 10851 10856 10857 10856 10859 10864 10869 10873 10879 10885 10890 10895 10897 10898 10900 10903 10905 10908 10910 10912 10914 10916 10919 10921 10923 10926 10929 10932 10935 10937 10940 10942 10944 10946 10948 10949 10951 10953 10955 10956 10956 10956 10957 10959 10961 10962 10962 10963 10964 10965 10965
10657 10665 10676 10685 10695 10706 10712 10718 10727 10733 10738 10749 10763 10771 10773 10776 10780 10782 10785 10791 10797 10800 10802 10804 10808 10810 10812 10819 10823 10823 10828 10837 10841 10842 10843 10848 10852 10852 10853 10856 10860 10864 10869 10874 10880 10885 10887 10888 10891 10896 10900 10902 10903 10906 10908 10910 10912 10915 10918 10921 10924 10927 10929 10932 10934 10936 10938 10940 10942 10944 10945 10947 10949 10951 10952 10952 10952 10953 10955 10957 10957 10958 10959 10960 10961 10962
10649 10662 10672 10679 10689 10696 10699 10706 10714 10721 10735 10750 10756 10757 10758 10764 10771 10775 10779 10784 10788 10792 10794 10795 10798 10802 10807 10813 10818 10821 10825 10830 10835 10838 10841 10845 10848 10849 10850 10853 10855 10860 10866 10871 10876 10878 10879 10884 10890 10894 10895 10895 10897 10900 10903 10906 10908 10911 10915 10918 10921 10923 10926 10928 10930 10932 10934 10936 10938 10940 10941 10943 10944 10946 10948 10948 10949 10949 10951 10952 10953 10954 10955 10956 10957 10957
10643 10655 10662 10670 10680 10685 10687 10693 10702 10716 10735 10742 10740 10743 10750 10756 10764 10769 10772 10776 10780 10783 10786 10789 10793 10801 10807 10810 10815 10819 10820 10823 10830 10835 10837 10840 10844 10845 10847 10849 10851 10856 10862 10867 10870 10872 10875 10881 10885 10885 10886 10890 10893 10897 10900 10902 10905 10908 10911 10914 10916 10919 10922 10924 10927 10928 10930 10932 10934 10935 10937 10938 10940 10942 10944 10944 10945 10945 10946 10947 10948 10950 10951 10951 10952 10952
10635 10642 10647 10657 10667 10673 10676 10683 10698 10716 10725 10726 10730 10738 10745 10750 10757 10763 10767 10771 10773 10777 10783 10788 10792 10799 10804 10805 10807 10813 10815 10817 10824 10831 10833 10835 10838 10840 10842 10845 10848 10852 10857 10861 10865 10868 10871 10875 10877 10879 10884 10888 10891 10894 10897 10899 10902 10905 10907 10910 10912 10915 10917 10920 10923 10924 10926 10928 10930 10931 10932 10934 10936 10938 10939 10940 10940 10941 10942 10943 10944 10945 10946 10946 10947 10947
10625 10630 10637 10648 10657 10664 10669 10679 10696 10706 10708 10714 10726 10732 10736 10743 10749 10754 10759 10762 10764 10772 10780 10784 10787 10793 10796 10797 10800 10806 10809 10810 10817 10824 10826 10827 10831 10836 10841 10845 10847 10850 10855 10859 10862 10863 10865 10869 10872 10876 10881 10884 10887 10890 10893 10896 10898 10900 10903 10905 10908 10910 10913 10916 10918 10920 10922 10924 10926 10927 10928 10930 10932 10933 10934 10935 10935 10936 10937 10938 10939 10940 10941 10941 10941 10941
10614 10619 10628 10639 10648 10655 10663 10672 10683 10689 10697 10712 10721 10721 10728 10737 10740 10744 10751 10754 10759 10768 10772 10776 10781 10785 10787 10790 10794 10798 10803 10807 10813 10818 10821 10825 10831 10838 10843 10844 10845 10850 10854 10856 10856 10857 10860 10864 10868 10872 10875 10879 10883 10885 10888 10891 10894 10896 10899 10901 10904 10906 10909 10911 10913 10915 10917 10919 10921 10923 10924 10925 10926 10927 10929 10930 10931 10932 10933 10934 10935 10935 10935 10936 10936 10936
10603 10608 10618 10631 10639 10647 10656 10664 10672 10681 10695 10706 10708 10711 10722 10730 10730 10737 10745 10748 10753 10760 10764 10768 10770 10772 10777 10784 10790 10796 10802 10805 10807 10811 10818 10826 10832 10837 10839 10840 10843 10848 10849 10848 10849 10853 10857 10860 10864 10867 10870 10873 10876 10879 10883 10886 10889 10892 10895 10897 10900 10902 10904 10906 10908 10910 10912 10914 10916 10918 10919 10920 10921 10922 10924 10925 10926 10927 10928 10928 10929 10930 10930 10931 10931 10930
10591 10598 10610 10624 10632 10640 10649 10657 10663 10672 10683 10689 10691 10699 10712 10718 10720 10727 10733 10736 10743 10753 10760 10761 10760 10766 10778 10785 10790 10796 10798 10796 10798 10809 10819 10826 10829 10832 10834 10837 10841 10843 10842 10843 10846 10850 10853 10856 10859 10862 10864 10867 10871 10874 10878 10882 10886 10889 10891 10893 10896 10898 10899 10901 10904 10905 10908 10909 10911 10912 10914 10915 10916 10917 10919 10920 10921 10922 10922 10923 10923 10924 10925 10925 10925 10925
10580 10590 10603 10615 10622 10630 10639 10646 10651 10660 10669 10676 10682 10691 10702 10708 10711 10715 10720 10727 10738 10748 10751 10750 10754 10768 10780 10782 10785 10790 10789 10790 10799 10811 10817 10821 10824 10827 10828 10832 10837 10838 10837 10840 10843 10846 10849 10852 10854 10857 10860 10863 10867 10870 10874 10877 10880 10883 10886 10888 10891 10893 10895 10897 10899 10901 10903 10904 10905 10907 10908 10909 10911 10912 10913 10914 10915 10916 10916 10917 10918 10918 10919 10919 10920 10920
10571 10582 10595 10605 10613 10620 10626 10633 10641 10650 10656 10663 10671 10681 10694 10703 10705 10709 10718 10728 10736 10740 10742 10746 10756 10767 10774 10775 10779 10784 10787 10791 10800 10805 10808 10813 10818 10821 10823 10828 10832 10833 10835 10837 10840 10843 10846 10847 10850 10853 10856 10859 10862 10866 10868 10871 10874 10878 10881 10883 10886 10888 10891 10893 10894 10896 10897 10899 10900 10901 10903 10904 10905 10906 10907 10908 10909 10910 10911 10911 10912 10913 10913 10913 10914 10914
10565 10575 10585 10595 10604 10610 10614 10622 10631 10636 10640 10647 10658 10670 10682 10690 10695 10704 10715 10723 10727 10732 10738 10746 10755 10763 10768 10771 10776 10781 10785 10789 10794 10798 10802 10809 10814 10816 10820 10824 10827 10830 10832 10835 10837 10839 10841 10843 10846 10850 10852 10854 10857 10860 10863 10867 10870 10873 10876 10878 10880 10883 10885 10887 10888 10890 10892 10893 10895 10896 10897 10898 10899 10901 10902 10903 10903 10905 10906 10907 10907 10908 10908 10908 10909 10909
10556 10566 10575 10583 10590 10595 10601 10611 10621 10625 10628 10638 10651 10663 10673 10681 10689 10700 10708 10712 10719 10729 10737 10744 10751 10759 10764 10767 10770 10775 10780 10784 10789 10793 10798 10803 10808 10811 10815 10820 10823 10826 10829 10831 10833 10835 10837 10840 10843 10845 10848 10850 10853 10856 10859 10862 10865 10867 10870 10873 10875 10877 10879 10881 10883 10885 10886 10888 10889 10891 10892 10893 10894 10895 10896 10897 10899 10900 10901 10902 10903 10903 10904 10904 10904 10905
10544 10555 10566 10574 10579 10584 10591 10601 10610 10615 10620 10631 10647 10660 10670 10680 10690 10699 10702 10707 10717 10728 10734 10742 10751 10756 10760 10762 10765 10770 10775 10780 10784 10788 10792 10798 10802 10806 10812 10816 10818 10820 10824 10827 10829 10831 10834 10836 10839 10841 10844 10846 10849 10852 10855 10857 10860 10863 10865 10867 10869 10872 10874 10876 10878 10880 10881 10883 10884 10885 10887 10888 10889 10890 10891 10892 10894 10895 10896 10898 10898 10899 10899 10899 10900 10900
10537 10549 10560 10567 10574 10583 10591 10598 10606 10611 10615 10627 10646 10660 10667 10675 10686 10695 10701 10707 10717 10725 10731 10739 10745 10749 10752 10757 10761 10766 10771 10775 10778 10782 10787 10792 10797 10802 10807 10810 10812 10816 10820 10823 10824 10826 10829 10832 10835 10837 10840 10842 10845 10848 10850 10853 10855 10858 10859 10861 10864 10867 10869 10871 10873 10874 10876 10878 10879 10880 10882 10883 10883 10885 10886 10887 10889 10890 10892 10893 10893 10893 10894 10894 10894 10894
10531 10541 10551 10557 10565 10575 10582 10589 10599 10605 10610 10625 10645 10657 10661 10668 10680 10691 10698 10704 10711 10719 10726 10732 10737 10741 10746 10751 10756 10760 10765 10768 10773 10777 10781 10786 10791 10797 10801 10804 10807 10812 10816 10818 10819 10821 10824 10828 10831 10833 10835 10837 10840 10842 10845 10848 10850 10852 10855 10857 10860 10862 10864 10866 10868 10869 10871 10873 10874 10875 10876 10877 10878 10879 10881 10882 10884 10886 10887 10887 10887 10888 10889 10889 10888 10888
10523 10532 10543 10551 10560 10568 10574 10581 10591 10599 10609 10625 10642 10651 10655 10663 10675 10686 10691 10694 10701 10710 10718 10724 10729 10736 10741 10747 10751 10754 10758 10763 10768 10772 10775 10781 10786 10790 10794 10798 10802 10806 10810 10812 10814 10816 10820 10823 10826 10828 10830 10833 10835 10837 10840 10843 10846 10848 10850 10853 10855 10857 10859 10861 10863 10864 10866 10868 10869 10870 10871 10872 10873 10874 10875 10877 10879 10880 10880 10880 10881 10882 10883 10882 10882 10882
10518 10529 10540 10549 10558 10566 10574 10581 10589 10598 10609 10622 10635 10643 10648 10656 10668 10677 10680 10684 10693 10702 10708 10715 10722 10729 10735 10741 10745 10748 10753 10759 10763 10766 10770 10775 10779 10783 10788 10792 10796 10800 10805 10807 10809 10811 10815 10818 10820 10823 10825 10828 10830 10833 10835 10838 10841 10843 10845 10848 10850 10852 10853 10855 10857 10859 10861 10862 10863 10863 10865 10866 10867 10867 10870 10872 10872 10872 10872 10873 10874 10876 10876 10876 10876 10876
10516 10527 10536 10544 10553 10563 10570 10575 10582 10592 10602 10612 10621 10628 10634 10644 10657 10665 10670 10678 10687 10695 10701 10708 10715 10722 10728 10734 10738 10742 10748 10753 10757 10760 10764 10768 10772 10777 10781 10785 10789 10794 10798 10801 10804 10807 10810 10812 10815 10817 10820 10823 10826 10828 10830 10832 10835 10838 10840 10842 10844 10846 10847 10849 10851 10853 10855 10856 10856 10857 10859 10859 10860 10862 10865 10866 10865 10864 10866 10867 10867 10868 10869 10869 10870 10870
10512 10520 10527 10536 10547 10557 10563 10567 10575 10587 10598 10608 10615 10621 10629 10643 10656 10663 10669 10677 10685 10691 10697 10704 10710 10716 10722 10728 10732 10737 10742 10747 10751 10754 10758 10762 10766 10770 10774 10778 10783 10787 10791 10794 10798 10802 10805 10807 10810 10812 10816 10819 10821 10823 10825 10827 10829 10831 10834 10836 10838 10840 10841 10843 10845 10846 10848 10849 10850 10851 10852 10852 10853 10856 10859 10859 10858 10858 10860 10861 10861 10862 10862 10863 10863 10863